Home   Weather   Township of Fairfield   Past weeks
Flag for USA

Past Weather in Township of Fairfield, North Carolina, USA — Yesterday and Last 2 Weeks

Now
49 °F

Clear.


Feels Like: 48 °F
Forecast: 49 / 43 °F
Wind: 3 mph from Southwest

Location: Manteo / Dare County Regional

Current Time: Dec 7, 2019 at 1:31:22 am

Latest Report: Dec 7, 2019 at 12:55 am


Visibility: 10 mi

Pressure: 30.16 "Hg

Humidity: 78%

Dew Point: 43 °F

Location of Township of FairfieldLocation

Past Weather in Township of Fairfield — Graph

°F

Township of Fairfield Temperature Yesterday

Maximum temperature yesterday: 57 °F (at 2:15 pm)
Minimum temperature yesterday: 33 °F (at 5:35 am)
Average temperature yesterday: 48 °F

High & Low Weather Summary for the Past Weeks

 TemperatureHumidityPressure
High65 °F (Nov 26, 12:55 pm)100% (Nov 26, 3:35 am)30.28 "Hg (Nov 26, 3:35 am)
Low33 °F (Dec 6, 5:35 am)39% (Dec 5, 11:35 am)29.45 "Hg (Nov 24, 3:55 am)
Average50 °F72%29.92 "Hg
* Reported Nov 22 12:15 am — Dec 7 12:35 am, Township of Fairfield. Weather by CustomWeather, © 2019

Note: Actual official high and low records may vary slightly from our data, if they occured in-between our weather recording intervals... More about our weather records

Township of Fairfield Weather History for the Previous 24 Hours

Scroll right to see more
 ConditionsComfort  
Time TempWeatherWind HumidityBarometerVisibility
12:35 am
Sat, Dec 7
50 °FClear.3 mph71%30.16 "Hg10 mi
12:15 am51 °FClear.No wind69%30.17 "Hg10 mi
11:55 pm
Fri, Dec 6
51 °FPassing clouds.3 mph68%30.17 "Hg10 mi
11:35 pm50 °FPassing clouds.No wind76%30.17 "Hg10 mi
11:15 pm49 °FPassing clouds.No wind86%30.17 "Hg10 mi
10:55 pm50 °FPartly cloudy.3 mph82%30.17 "Hg10 mi
10:35 pm50 °FMostly cloudy.No wind81%30.17 "Hg10 mi
10:15 pm51 °FMostly cloudy.No wind80%30.17 "Hg10 mi
9:55 pm53 °FOvercast.3 mph71%30.18 "Hg10 mi
9:35 pm52 °FOvercast.3 mph71%30.18 "Hg10 mi
9:15 pm53 °FOvercast.5 mph69%30.18 "Hg10 mi
8:55 pm53 °FMostly cloudy.3 mph68%30.18 "Hg10 mi
8:35 pm54 °FMostly cloudy.3 mph62%30.18 "Hg10 mi
8:15 pm54 °FDrizzle. Mostly cloudy.6 mph62%30.18 "Hg10 mi
7:55 pm54 °FRain. Overcast.8 mph64%30.19 "Hg10 mi
6:55 pm51 °FPartly cloudy.No wind73%30.20 "Hg10 mi
6:35 pm52 °FPassing clouds.No wind65%30.19 "Hg10 mi
6:15 pm50 °FPassing clouds.No wind73%30.19 "Hg10 mi
5:55 pm51 °FClear.No wind70%30.18 "Hg10 mi
5:35 pm51 °FClear.No wind70%30.18 "Hg10 mi
5:15 pm51 °FClear.No wind71%30.18 "Hg10 mi
4:55 pm54 °FClear.No wind58%30.18 "Hg10 mi
4:35 pm53 °FScattered clouds.No wind63%30.18 "Hg10 mi
4:15 pm54 °FScattered clouds.No wind60%30.18 "Hg10 mi
3:55 pm54 °FScattered clouds.3 mph63%30.17 "Hg10 mi
3:35 pm55 °FScattered clouds.3 mph55%30.17 "Hg10 mi
2:55 pm56 °FScattered clouds.6 mph51%30.18 "Hg10 mi
2:35 pm56 °FPartly sunny.7 mph49%30.18 "Hg10 mi
2:15 pm57 °FPartly sunny.10 mph45%30.18 "Hg10 mi
1:55 pm56 °FScattered clouds.5 mph54%30.18 "Hg10 mi
1:35 pm57 °FSunny.6 mph46%30.18 "Hg10 mi
1:15 pm56 °FSunny.6 mph49%30.19 "Hg10 mi
12:55 pm56 °FSunny.6 mph51%30.19 "Hg10 mi
12:35 pm55 °FSunny.7 mph48%30.20 "Hg10 mi
12:15 pm55 °FSunny.7 mph45%30.21 "Hg10 mi
11:55 am54 °FSunny.6 mph48%30.22 "Hg10 mi
11:35 am54 °FSunny.6 mph50%30.24 "Hg10 mi
11:15 am54 °FSunny.7 mph48%30.25 "Hg10 mi
10:55 am53 °FSunny.8 mph47%30.25 "Hg10 mi
10:35 am52 °FSunny.6 mph48%30.26 "Hg10 mi
10:15 am49 °FSunny.5 mph60%30.27 "Hg10 mi
9:35 am47 °FSunny.6 mph62%30.28 "Hg10 mi
9:15 am46 °FSunny.6 mph64%30.28 "Hg10 mi
8:55 am45 °FSunny.6 mph66%30.28 "Hg10 mi
8:35 am45 °FSunny.3 mph63%30.26 "Hg10 mi
8:15 am42 °FSunny.No wind84%30.26 "Hg10 mi
7:55 am36 °FSunny.No wind87%30.26 "Hg10 mi
7:35 am38 °FSunny.No wind89%30.27 "Hg10 mi
7:15 am35 °FSunny.No wind92%30.26 "Hg10 mi
6:55 am34 °FClear.No wind95%30.26 "Hg10 mi
6:35 am33 °FClear.No wind95%30.25 "Hg10 mi
5:55 am34 °FClear.No wind95%30.24 "Hg10 mi
5:35 am33 °FClear.No wind95%30.24 "Hg10 mi
5:15 am34 °FClear.No wind92%30.24 "Hg10 mi
4:55 am35 °FClear.No wind93%30.23 "Hg10 mi
4:35 am37 °FClear.No wind89%30.23 "Hg10 mi
4:15 am36 °FClear.No wind89%30.23 "Hg10 mi
3:35 am42 °FClear.No wind69%30.23 "Hg10 mi
3:15 am42 °FClear.6 mph72%30.23 "Hg10 mi
2:55 am37 °FClear.No wind84%30.23 "Hg10 mi
2:35 am42 °FClear.3 mph70%30.24 "Hg10 mi
2:15 am43 °FClear.3 mph69%30.24 "Hg10 mi
1:35 am44 °FClear.5 mph69%30.24 "Hg10 mi
Weather by CustomWeather, © 2019

See weather overview

Advertising